Location: Arthurs Seat
(13.1500°N, 59.6000°W)
Time: 07:33:10
(UTC+00:00)

CSL-04 Debris - Pass Details

Date: 25 August 2019
Orbit: 828 x 848 km, 99.0° (Epoch: 16 October)

Event Time Altitude Azimuth Distance (km) Brightness Sun altitude
Rises 22:35:10 0° 163° (SSE) 3,382 7.0 -5.9°
Reaches altitude 10° 22:37:32 10° 161° (SSE) 2,445 6.3 -6.4°
Maximum altitude 22:42:56 73° 77° (ENE) 870 4.2 -7.7°
Drops below altitude 10° 22:48:18 10° 353° (N) 2,433 6.9 -9.0°
Sets 22:50:39 0° 351° (N) 3,364 7.6 -9.6°
